GW5072 Weather Reports


time (UTC)temp
F
wind
direction
speed
knots
gust
knots
rain 1hr
in
rain 24hr
in
rain mn
in
humidity
%
barometer
mb
20260905014507 78 96 0.0 0.0 0.00 0.12 0.12 92 1013.3
20260905014004 78 96 0.0 0.0 0.00 0.12 0.12 92 1013.4
20260905013502 78 83 0.0 0.0 0.00 0.12 0.12 91 1013.3
20260905013010 79 82 0.0 0.0 0.00 0.12 0.12 91 1013.2
20260905012504 79 82 0.0 0.0 0.00 0.12 0.12 91 1013.1
20260905012004 79 82 0.0 0.0 0.00 0.12 0.12 90 1013.1
20260905011507 79 82 0.0 0.0 0.00 0.12 0.12 90 1013.0
20260905011006 79 82 0.0 0.0 0.00 0.12 0.12 90 1013.0
20260905010506 80 82 0.0 0.0 0.00 0.12 0.12 89 1013.0
20260905010009 80 83 0.0 0.0 0.00 0.12 0.12 89 1012.9
20260905005505 80 82 0.0 0.0 0.00 0.12 0.12 89 1012.9
20260905005003 81 82 0.0 0.0 0.00 0.12 0.12 89 1013.0
20260905004510 81 82 0.0 0.0 0.00 0.12 0.12 89 1012.9
20260905004003 81 82 0.0 0.0 0.00 0.12 0.12 88 1012.8
20260905003506 82 82 0.0 0.0 0.00 0.12 0.12 88 1012.7
20260905003012 82 82 0.0 0.0 0.00 0.12 0.12 88 1012.7
20260905002504 82 83 0.0 0.0 0.00 0.12 0.12 88 1012.7
20260905002008 82 82 0.0 0.0 0.00 0.12 0.12 87 1012.5
20260905001512 82 82 0.0 0.0 0.00 0.12 0.12 88 1012.5
20260905001004 82 82 0.0 0.0 0.00 0.12 0.12 87 1012.6
20260905000509 82 82 0.0 0.0 0.00 0.12 0.12 88 1012.5
20260905000014 82 82 0.0 0.0 0.00 0.12 0.12 88 1012.6
20260904235505 82 82 0.0 0.0 0.00 0.12 0.12 89 1012.7
20260904235003 82 82 0.0 0.0 0.00 0.12 0.12 88 1012.6
20260904234513 82 83 0.0 0.0 0.00 0.12 0.12 88 1012.6
20260904234006 82 83 0.0 0.0 0.00 0.12 0.12 88 1012.6
20260904233503 82 218 0.0 0.0 0.00 0.12 0.12 88 1012.6
20260904233011 83 218 0.0 0.0 0.00 0.12 0.12 86 1012.6
20260904232509 83 218 0.0 0.0 0.00 0.12 0.12 87 1012.6
20260904232007 83 218 0.0 0.0 0.00 0.12 0.12 86 1012.7
20260904231515 83 218 0.0 0.0 0.00 0.12 0.12 85 1012.6
20260904231007 84 218 0.0 0.0 0.00 0.12 0.12 85 1012.5
20260904230507 84 218 0.0 0.0 0.00 0.12 0.12 84 1012.4
20260904230009 85 218 0.0 0.0 0.00 0.12 0.12 82 1012.7
20260904225506 85 218 0.0 0.0 0.00 0.12 0.12 81 1012.5
20260904225006 86 218 0.0 0.0 0.00 0.12 0.12 80 1012.5
20260904224505 86 218 0.0 0.0 0.00 0.12 0.12 79 1012.6
20260904224008 86 218 0.0 0.0 0.00 0.12 0.12 78 1012.7
20260904223503 87 218 0.0 0.0 0.00 0.12 0.12 78 1012.7
20260904223023 87 218 0.0 0.0 0.00 0.12 0.12 77 1012.7
20260904222507 87 218 0.0 0.0 0.00 0.12 0.12 78 1012.9
20260904222004 87 218 0.0 0.0 0.00 0.12 0.12 76 1012.9
20260904221518 88 218 0.0 0.0 0.00 0.12 0.12 75 1012.9
20260904221004 88 218 0.0 0.0 0.00 0.12 0.12 74 1012.9
20260904220504 88 218 0.0 0.9 0.00 0.12 0.12 76 1013.0
20260904220020 88 218 0.0 0.9 0.00 0.12 0.12 75 1013.0
20260904215505 88 233 0.0 0.0 0.00 0.12 0.12 77 1012.9
20260904215009 87 242 0.0 0.0 0.00 0.12 0.12 76 1013.0
20260904214518 87 241 0.0 0.0 0.00 0.12 0.12 77 1013.0
20260904214003 87 241 0.0 0.0 0.00 0.12 0.12 80 1013.0
20260904213508 87 238 0.0 0.0 0.00 0.12 0.12 79 1013.0
20260904213024 87 238 0.0 0.0 0.00 0.12 0.12 78 1013.1
20260904212510 87 238 0.0 0.0 0.00 0.12 0.12 79 1013.1
20260904212009 87 238 0.0 0.0 0.00 0.12 0.12 79 1013.1
20260904211509 87 245 0.0 0.0 0.00 0.12 0.12 81 1013.2
20260904211014 85 94 0.0 0.0 0.00 0.12 0.12 81 1013.4
20260904210508 85 60 0.0 0.0 0.00 0.12 0.12 87 1013.3
20260904210023 84 60 0.0 0.0 0.00 0.12 0.12 87 1013.4
20260904205508 83 60 0.0 0.0 0.00 0.12 0.12 90 1013.7
20260904205006 82 86 0.0 0.0 0.00 0.12 0.12 90 1013.9
20260904204521 81 86 0.0 0.0 0.00 0.12 0.12 89 1014.0
20260904204008 81 86 0.0 0.0 0.00 0.12 0.12 89 1014.0
20260904203506 80 86 0.0 0.0 0.00 0.12 0.12 89 1014.1
20260904203023 80 86 0.0 0.0 0.00 0.12 0.12 90 1014.2
20260904202509 80 86 0.0 0.0 0.00 0.12 0.12 90 1014.2
20260904202004 80 86 0.0 0.0 0.00 0.12 0.12 91 1014.3
20260904201520 80 86 0.0 0.0 0.00 0.12 0.12 92 1014.4
20260904201007 80 86 0.0 0.0 0.00 0.12 0.12 92 1014.4
20260904200515 79 86 0.0 0.0 0.00 0.12 0.12 93 1014.3
20260904200023 79 86 0.0 0.0 0.00 0.12 0.12 93 1014.4
20260904195504 79 86 0.0 0.0 0.00 0.12 0.12 92 1014.5
20260904195013 79 86 0.0 0.0 0.00 0.12 0.12 92 1014.3
20260904194517 79 87 0.0 0.0 0.00 0.12 0.12 94 1014.3
20260904194014 78 86 0.0 0.0 0.00 0.12 0.12 94 1014.4
20260904193511 78 86 0.0 0.0 0.00 0.12 0.12 93 1014.4
20260904193016 78 86 0.0 0.0 0.00 0.12 0.12 94 1014.3
20260904192512 77 87 0.0 0.0 0.00 0.12 0.12 94 1014.4
20260904192010 77 86 0.0 0.0 0.00 0.12 0.12 93 1014.5
20260904191511 77 86 0.0 0.0 0.00 0.12 0.12 94 1014.5
20260904191013 77 86 0.0 0.0 0.00 0.12 0.12 94 1014.6
20260904190508 77 86 0.0 0.0 0.00 0.12 0.12 93 1014.6
20260904190027 77 88 0.0 0.0 0.01 0.12 0.12 94 1014.8
20260904185510 77 94 0.0 0.0 0.01 0.12 0.12 94 1014.9
20260904185007 77 94 0.0 0.0 0.02 0.12 0.12 94 1015.0
20260904184526 77 94 0.0 0.0 0.02 0.12 0.12 94 1015.0
20260904184010 77 94 0.0 0.0 0.04 0.12 0.12 94 1015.1
20260904183506 77 208 0.0 0.0 0.07 0.12 0.12 93 1015.1
20260904183029 76 211 0.0 0.0 0.11 0.12 0.12 94 1015.2
20260904182510 76 212 0.0 0.0 0.11 0.12 0.12 93 1015.4
20260904182019 76 207 0.0 0.0 0.11 0.13 0.12 93 1015.6
20260904181525 76 207 0.0 0.0 0.11 0.16 0.12 92 1015.6
20260904181011 76 207 0.0 0.0 0.11 0.17 0.12 91 1015.6
20260904180513 77 207 0.0 0.0 0.11 0.17 0.12 90 1015.6
20260904180023 77 129 0.0 0.0 0.10 0.16 0.11 90 1015.8
20260904175504 78 129 0.0 0.0 0.10 0.16 0.11 88 1016.0
20260904175012 78 270 0.0 0.0 0.09 0.15 0.10 87 1016.1
20260904174519 80 103 0.0 0.0 0.09 0.15 0.10 85 1016.1
20260904174013 81 135 0.0 0.0 0.07 0.13 0.08 83 1016.3
20260904173513 82 136 0.0 0.0 0.04 0.10 0.05 80 1016.3
20260904173016 82 217 0.0 0.0 0.00 0.06 0.01 78 1016.0
20260904172514 82 260 0.0 0.9 0.00 0.06 0.01 76 1015.8
20260904172013 83 229 0.0 0.9 0.00 0.06 0.01 76 1015.7
20260904171529 83 315 0.0 0.9 0.00 0.06 0.01 76 1015.7
20260904171013 84 231 0.0 0.9 0.00 0.06 0.01 76 1015.8
20260904170509 84 220 0.0 0.9 0.00 0.06 0.01 75 1015.8
20260904170028 84 219 0.0 0.9 0.00 0.06 0.01 74 1016.0
20260904165516 85 278 0.0 0.9 0.00 0.06 0.01 74 1016.1
20260904165008 85 223 0.0 0.9 0.00 0.06 0.01 73 1016.2
20260904164527 86 227 0.0 1.7 0.00 0.06 0.01 74 1016.1
20260904164011 88 275 0.0 1.7 0.00 0.06 0.01 72 1015.9
20260904163514 89 321 0.0 0.9 0.00 0.06 0.01 70 1015.9
20260904163032 90 223 0.0 0.0 0.00 0.06 0.01 75 1015.7
20260904162513 89 111 0.0 0.0 0.00 0.06 0.01 76 1015.6
20260904162014 89 112 0.0 0.0 0.00 0.06 0.01 77 1015.4
20260904161533 88 278 0.0 0.9 0.00 0.06 0.01 78 1015.2
20260904161013 88 86 0.0 0.9 0.00 0.06 0.01 77 1015.3
20260904160514 88 66 0.0 0.0 0.00 0.06 0.01 78 1015.1
20260904160024 87 110 0.0 0.0 0.00 0.06 0.01 81 1015.1
20260904155516 87 75 0.0 0.0 0.00 0.06 0.01 81 1015.1
20260904155016 86 113 0.0 0.0 0.00 0.06 0.01 82 1015.1
20260904154521 86 54 0.0 0.0 0.00 0.06 0.01 83 1015.1
20260904154013 86 107 0.0 0.0 0.00 0.06 0.01 83 1015.1
20260904153513 86 83 0.0 0.9 0.00 0.06 0.01 83 1015.1
20260904153035 86 305 0.0 0.9 0.00 0.06 0.01 84 1015.0
20260904152513 85 90 0.0 0.9 0.00 0.06 0.01 86 1015.1
20260904152010 85 88 0.0 0.0 0.00 0.06 0.01 87 1015.0
20260904151533 84 106 0.0 0.0 0.00 0.06 0.01 87 1015.0
20260904151016 84 81 0.0 0.0 0.00 0.06 0.01 88 1015.0
20260904150512 83 92 0.0 0.0 0.00 0.06 0.01 89 1015.2
20260904150037 83 134 0.0 0.0 0.00 0.06 0.01 91 1015.0
20260904145515 83 134 0.0 0.0 0.00 0.06 0.01 90 1015.0
20260904145013 83 214 0.0 0.0 0.00 0.06 0.01 91 1015.1
20260904144530 83 153 0.0 0.9 0.00 0.06 0.01 92 1015.0
20260904144012 82 84 0.0 0.9 0.00 0.06 0.01 92 1015.1
20260904143517 82 77 0.0 0.0 0.00 0.06 0.01 94 1015.0
20260904143030 82 77 0.0 0.0 0.00 0.06 0.01 94 1015.0
20260904142510 82 77 0.0 0.0 0.00 0.06 0.01 94 1015.0
20260904142016 81 76 0.0 0.0 0.00 0.06 0.01 95 1015.0
20260904141534 81 213 0.0 0.0 0.00 0.06 0.01 96 1015.1
20260904141014 81 90 0.0 0.0 0.00 0.06 0.01 97 1015.0
20260904140513 80 91 0.0 0.0 0.00 0.06 0.01 97 1015.1
20260904140026 80 90 0.0 0.0 0.00 0.06 0.01 97 1015.0
20260904135506 80 84 0.0 0.0 0.00 0.06 0.01 97 1014.9
20260904135014 79 84 0.0 0.0 0.00 0.06 0.01 97 1014.7
20260904134527 79 83 0.0 0.0 0.00 0.06 0.01 97 1014.7
20260904134006 79 84 0.0 0.0 0.00 0.06 0.01 97 1014.7
20260904133518 79 84 0.0 0.0 0.00 0.06 0.01 97 1014.7
20260904133020 79 84 0.0 0.0 0.00 0.06 0.01 97 1014.7
20260904132514 79 84 0.0 0.0 0.00 0.06 0.01 97 1014.7
20260904132015 78 84 0.0 0.0 0.00 0.06 0.01 97 1014.7
20260904131515 78 84 0.0 0.0 0.00 0.06 0.01 98 1014.6
20260904131014 78 90 0.0 0.0 0.00 0.06 0.01 97 1014.6
20260904130514 78 90 0.0 0.0 0.00 0.06 0.01 97 1014.6
20260904130038 78 90 0.0 0.0 0.00 0.06 0.01 97 1014.5
20260904125517 78 90 0.0 0.0 0.00 0.06 0.01 97 1014.5
20260904125009 77 90 0.0 0.0 0.00 0.06 0.01 97 1014.4
20260904124531 77 90 0.0 0.0 0.00 0.06 0.01 97 1014.4
20260904124012 77 90 0.0 0.0 0.00 0.06 0.01 97 1014.3
20260904123508 77 90 0.0 0.0 0.00 0.06 0.01 97 1014.3
20260904123031 77 90 0.0 0.0 0.00 0.06 0.01 97 1014.2
20260904122511 77 90 0.0 0.0 0.00 0.06 0.01 97 1014.1
20260904122016 77 90 0.0 0.0 0.00 0.06 0.01 97 1014.1
20260904121527 77 90 0.0 0.0 0.00 0.06 0.01 97 1014.1
20260904121012 77 90 0.0 0.0 0.00 0.06 0.01 97 1014.0
20260904120517 77 90 0.0 0.0 0.00 0.06 0.01 97 1014.0
20260904120026 77 90 0.0 0.0 0.00 0.06 0.01 97 1013.9
20260904115509 77 90 0.0 0.0 0.00 0.06 0.01 97 1014.0
20260904115013 77 90 0.0 0.0 0.00 0.06 0.01 97 1013.9
20260904114526 77 90 0.0 0.0 0.00 0.06 0.01 97 1013.9
20260904114016 77 90 0.0 0.0 0.00 0.06 0.01 97 1013.9
20260904113514 77 90 0.0 0.0 0.00 0.06 0.01 97 1013.9
20260904113025 77 91 0.0 0.0 0.00 0.06 0.01 97 1013.8
20260904112516 77 91 0.0 0.0 0.01 0.06 0.01 97 1013.8
20260904112011 77 90 0.0 0.0 0.01 0.06 0.01 97 1013.8
20260904111515 77 91 0.0 0.0 0.01 0.06 0.01 97 1013.7
20260904111013 77 91 0.0 0.0 0.01 0.06 0.01 97 1013.7
20260904110513 77 90 0.0 0.0 0.01 0.06 0.01 97 1013.5
20260904110015 77 90 0.0 0.0 0.01 0.06 0.01 97 1013.6
20260904105505 77 91 0.0 0.0 0.01 0.06 0.01 97 1013.5
20260904105009 77 91 0.0 0.0 0.01 0.06 0.01 97 1013.5
20260904104514 77 91 0.0 0.0 0.01 0.06 0.01 97 1013.5
20260904104004 77 91 0.0 0.0 0.01 0.06 0.01 97 1013.4
20260904103511 77 90 0.0 0.0 0.01 0.06 0.01 97 1013.5
20260904103008 77 90 0.0 0.0 0.01 0.06 0.01 97 1013.4
20260904102512 77 91 0.0 0.0 0.00 0.05 0.00 97 1013.4
20260904102008 77 90 0.0 0.0 0.00 0.05 0.00 97 1013.5
20260904101505 77 91 0.0 0.0 0.00 0.05 0.00 97 1013.4
20260904101010 77 90 0.0 0.0 0.00 0.05 0.00 97 1013.4
20260904100510 77 91 0.0 0.0 0.00 0.05 0.00 97 1013.4
20260904100005 77 90 0.0 0.0 0.00 0.05 0.00 97 1013.5
20260904095512 77 90 0.0 0.0 0.00 0.05 0.00 97 1013.5
20260904095004 77 91 0.0 0.0 0.00 0.05 0.00 97 1013.4
20260904094528 77 90 0.0 0.0 0.00 0.05 0.00 97 1013.3
20260904094008 77 91 0.0 0.0 0.00 0.05 0.00 97 1013.3
20260904093504 78 90 0.0 0.0 0.00 0.05 0.00 97 1013.3
20260904093025 78 91 0.0 0.0 0.00 0.05 0.00 97 1013.2
20260904092503 78 91 0.0 0.0 0.00 0.05 0.00 97 1013.2
20260904092003 78 91 0.0 0.0 0.00 0.05 0.00 97 1013.1
20260904091522 78 90 0.0 0.0 0.00 0.05 0.00 97 1013.1
20260904091006 78 91 0.0 0.0 0.00 0.05 0.00 97 1013.1
20260904090512 78 91 0.0 0.0 0.00 0.05 0.00 96 1013.0
20260904090014 78 91 0.0 0.0 0.00 0.05 0.00 97 1013.0
20260904085504 78 91 0.0 0.0 0.00 0.05 0.00 97 1013.0
20260904085010 78 91 0.0 0.0 0.00 0.05 0.00 97 1013.0
20260904084512 78 91 0.0 0.0 0.00 0.05 0.00 97 1013.1
20260904084015 78 91 0.0 0.0 0.00 0.05 0.00 97 1013.1
20260904083510 78 91 0.0 0.0 0.00 0.05 0.00 96 1013.0
20260904083010 78 91 0.0 0.0 0.00 0.05 0.00 96 1012.9
20260904082511 78 91 0.0 0.0 0.00 0.05 0.00 97 1013.0
20260904082008 78 90 0.0 0.0 0.00 0.05 0.00 97 1013.1
20260904081507 78 90 0.0 0.0 0.00 0.05 0.00 97 1013.2
20260904081012 78 90 0.0 0.0 0.00 0.05 0.00 97 1013.2
20260904080504 78 90 0.0 0.0 0.00 0.05 0.00 97 1013.1
20260904080029 78 90 0.0 0.0 0.00 0.05 0.00 96 1013.1
20260904075510 78 91 0.0 0.0 0.00 0.05 0.00 96 1013.2
20260904075006 78 90 0.0 0.0 0.00 0.05 0.00 96 1013.3
20260904074544 78 90 0.0 0.0 0.00 0.05 0.00 96 1013.3
20260904074011 78 91 0.0 0.0 0.00 0.05 0.00 96 1013.4
20260904073502 78 90 0.0 0.0 0.00 0.05 0.00 96 1013.5
20260904073033 78 90 0.0 0.0 0.00 0.05 0.00 96 1013.5
20260904072505 78 90 0.0 0.0 0.00 0.05 0.00 96 1013.6
20260904072014 78 90 0.0 0.0 0.00 0.05 0.00 96 1013.6
20260904071520 78 91 0.0 0.0 0.00 0.05 0.00 96 1013.6
20260904071007 78 91 0.0 0.0 0.00 0.05 0.00 96 1013.6
20260904070514 78 90 0.0 0.0 0.00 0.05 0.00 96 1013.7
20260904070017 78 91 0.0 0.0 0.00 0.05 0.00 96 1013.7
20260904065516 78 90 0.0 0.0 0.00 0.05 0.00 96 1013.7
20260904065015 78 91 0.0 0.0 0.00 0.05 0.00 96 1013.6
20260904064517 78 91 0.0 0.0 0.00 0.05 0.00 96 1013.7
20260904064015 78 91 0.0 0.0 0.00 0.05 0.00 96 1013.7
20260904063513 78 91 0.0 0.0 0.00 0.05 0.00 96 1013.6
20260904063010 78 91 0.0 0.0 0.00 0.05 0.00 96 1013.6
20260904062517 78 91 0.0 0.0 0.00 0.05 0.00 96 1013.5
20260904062010 78 90 0.0 0.0 0.00 0.05 0.00 96 1013.6
20260904061537 78 91 0.0 0.0 0.00 0.05 0.00 96 1013.7
20260904061014 78 90 0.0 0.0 0.00 0.05 0.00 96 1013.7
20260904060506 78 91 0.0 0.0 0.00 0.05 0.00 96 1013.7
20260904060029 77 91 0.0 0.0 0.00 0.06 0.00 96 1013.7
20260904055509 77 91 0.0 0.0 0.00 0.06 0.00 96 1013.9
20260904055005 78 91 0.0 0.0 0.00 0.06 0.00 96 1013.9
20260904054533 78 90 0.0 0.0 0.00 0.06 0.00 96 1013.9
20260904054009 77 91 0.0 0.0 0.00 0.06 0.00 96 1013.8
20260904053517 78 90 0.0 0.0 0.00 0.06 0.00 96 1013.7
20260904053028 78 90 0.0 0.0 0.00 0.06 0.00 96 1013.7
20260904052507 78 90 0.0 0.0 0.00 0.06 0.00 96 1013.7
20260904052014 77 91 0.0 0.0 0.00 0.06 0.00 96 1013.7
20260904051522 77 90 0.0 0.0 0.00 0.07 0.00 96 1013.8
20260904051004 77 91 0.0 0.0 0.00 0.07 0.00 96 1013.7
20260904050512 77 90 0.0 0.0 0.00 0.09 0.00 96 1013.7
20260904050017 78 90 0.0 0.0 0.00 0.10 0.00 96 1013.6
20260904045514 78 91 0.0 0.0 0.00 0.11 0.10 96 1013.6
20260904045012 78 91 0.0 0.0 0.00 0.11 0.10 96 1013.7
20260904044513 77 91 0.0 0.0 0.00 0.12 0.10 96 1013.8
20260904044013 77 90 0.0 0.0 0.00 0.12 0.10 96 1013.7
20260904043512 77 90 0.0 0.0 0.00 0.12 0.10 96 1013.6
20260904043032 77 91 0.0 0.0 0.00 0.12 0.10 95 1013.7
20260904042515 78 91 0.0 0.0 0.00 0.12 0.10 95 1013.7
20260904042011 78 91 0.0 0.0 0.00 0.12 0.10 96 1013.7
20260904041535 78 90 0.0 0.0 0.00 0.12 0.10 96 1013.6
20260904041016 77 91 0.0 0.0 0.00 0.12 0.10 96 1013.7
20260904040508 77 90 0.0 0.0 0.00 0.12 0.10 95 1013.7
20260904040032 77 90 0.0 0.0 0.00 0.12 0.10 95 1013.7
20260904035515 77 90 0.0 0.0 0.00 0.13 0.10 95 1013.8
20260904035013 77 91 0.0 0.0 0.00 0.13 0.10 95 1013.9
20260904034531 77 91 0.0 0.0 0.00 0.13 0.10 95 1013.8
20260904034012 77 90 0.0 0.0 0.00 0.13 0.10 95 1013.7
20260904033517 77 91 0.0 0.0 0.00 0.13 0.10 95 1013.5
20260904033027 77 90 0.0 0.0 0.00 0.13 0.10 95 1013.5
20260904032509 77 91 0.0 0.0 0.00 0.13 0.10 95 1013.7
20260904032017 77 91 0.0 0.0 0.00 0.13 0.10 95 1013.6
20260904031526 77 90 0.0 0.0 0.00 0.13 0.10 95 1013.5
20260904031020 77 91 0.0 0.0 0.00 0.13 0.10 95 1013.5
20260904030513 77 91 0.0 0.0 0.00 0.13 0.10 95 1013.5
20260904030024 77 91 0.0 0.0 0.00 0.13 0.10 95 1013.5
20260904025515 78 91 0.0 0.0 0.00 0.13 0.10 95 1013.4
20260904025015 78 91 0.0 0.0 0.00 0.13 0.10 95 1013.3
20260904024516 78 90 0.0 0.0 0.00 0.13 0.10 95 1013.4
20260904024017 78 90 0.0 0.0 0.00 0.13 0.10 95 1013.3
20260904023512 78 91 0.0 0.0 0.00 0.13 0.10 95 1013.2
20260904023034 78 90 0.0 0.0 0.00 0.13 0.10 95 1013.2
20260904022516 78 91 0.0 0.0 0.00 0.13 0.10 94 1013.1
20260904022009 78 91 0.0 0.0 0.00 0.13 0.10 94 1013.1
20260904021537 78 90 0.0 0.0 0.00 0.13 0.10 94 1013.0
20260904021017 78 91 0.0 0.0 0.00 0.13 0.10 94 1013.0
20260904020516 78 91 0.0 0.0 0.00 0.13 0.10 94 1012.9
20260904020011 78 91 0.0 0.0 0.00 0.13 0.10 94 1012.8
20260904015512 78 90 0.0 0.0 0.00 0.13 0.10 94 1012.9
20260904015010 78 91 0.0 0.0 0.00 0.13 0.10 94 1012.8